Location: Chandolas
(44.4033°N, 4.2533°E)
Time: 14:22:08
(UTC+00:00)

FENGYUN 3A - Visible Passes

Search period start: 18 February 2020 00:00
Search period end: 28 February 2020 00:00
Orbit: 824 x 836 km, 98.4° (Epoch: 17 February)

Date Brightness Start Highest point End Pass type
(mag) Time Alt. Az. Time Alt. Az. Time Alt. Az.
18 Feb 4.5 04:34:41 10° NNE 04:39:59 50° E 04:45:15 10° S visible
18 Feb 7.1 17:44:15 10° WSW 17:46:14 12° W 17:48:14 10° WNW visible
19 Feb 5.2 04:17:02 10° NNE 04:22:01 35° E 04:26:57 10° SSE visible
19 Feb 4.3 05:57:25 10° N 06:02:17 34° WNW 06:07:07 10° SW visible
20 Feb 5.8 03:59:33 10° NE 04:04:00 25° E 04:08:26 10° SSE visible
20 Feb 3.9 05:39:19 10° N 05:44:32 47° WNW 05:49:42 10° SW visible
21 Feb 6.3 03:42:20 10° NE 03:45:56 18° E 03:49:31 10° SE visible
21 Feb 3.6 05:21:19 10° N 05:26:44 66° WNW 05:32:06 10° SSW visible
22 Feb 6.6 03:25:43 10° ENE 03:27:49 12° E 03:29:54 10° ESE visible
22 Feb 3.7 05:03:24 10° NNE 05:08:53 89° ESE 05:14:20 10° SSW visible
23 Feb 4.1 04:45:34 10° NNE 04:50:59 63° E 04:56:22 10° S visible
24 Feb 4.8 04:27:50 10° NNE 04:33:04 44° E 04:38:14 10° S visible
25 Feb 5.4 04:10:14 10° NNE 04:15:04 31° E 04:19:52 10° SSE visible
25 Feb 4.2 05:50:26 10° N 05:55:25 38° WNW 06:00:23 10° SW visible
26 Feb 6.0 03:52:49 10° NE 03:57:02 22° E 04:01:13 10° SE visible
26 Feb 3.8 05:32:21 10° N 05:37:39 53° WNW 05:42:54 10° SW visible
27 Feb 6.4 03:35:44 10° NE 03:38:57 16° E 03:42:09 10° SE visible
27 Feb 3.6 05:14:23 10° N 05:19:50 74° WNW 05:25:15 10° SSW visible
